Volkel, Netherlands

11:18 PM CEST on April 30, 2017 (GMT +0200)
Volkel Air Base

Weather History for EHVK - March, 2014

Change the Weather History Date:

Tuesday, March 4, 2014

  Actual Average Record
Temperature  
Mean Temperature 41 °F -  
Max Temperature 53 °F 50 °F 60 °F (1998)
Min Temperature 29 °F 36 °F 10 °F (2005)
Degree Days  
Heating Degree Days 24    
Moisture  
Dew Point 35 °F    
Average Humidity 80    
Maximum Humidity 100    
Minimum Humidity 47    
Precipitation  
Precipitation 0.00 in - - ()
Sea Level Pressure  
Sea Level Pressure 29.63 in    
Wind  
Wind Speed 4 mph ()    
Max Wind Speed 12 mph    
Max Gust Speed -    
Visibility 7.6 miles    
Events      
Averages and records for this station are not official NWS values.
T = Trace of Precipitation, MM = Missing Value Source: Averaged Metar Reports

Daily Weather History Graph

Daily Weather History Graph

Search for Another Location

Airport or City:

Trip Planner

Search our weather history database for the weather conditions in past years. The results will help you decide how hot, cold, wet, or windy it might be!

Date:

Astronomy

Mar. 04, 2014 Rise Set
Actual Time 7:16 AM CET 6:22 PM CET
Civil Twilight 6:42 AM CET 6:55 PM CET
Nautical Twilight 6:04 AM CET 7:34 PM CET
Astronomical Twilight 5:25 AM CET 8:13 PM CET
Moon 8:25 AM CET (3/4) 10:44 PM CET (3/4)
Length of Visible Light 12h 13m
Length of Day
11h 06m
Waxing Crescent, 13% of the Moon is Illuminated
Mar 4
Waxing Crescent
Mar 8
First Quarter
Mar 16
Full
Mar 24
Last Quarter
Mar 30
New

Hourly Weather History & Observations

Time (CET) Temp. Windchill Dew Point Humidity Pressure Visibility Wind Dir Wind Speed Gust Speed Precip Events Conditions
12:00 AM 37 °F - 32 °F 77% 29.40 in 22 mi ESE 4.5 mph - -  
12:25 AM 32.0 °F 26.4 °F 30.2 °F 93% 29.39 in 6.2 mi East 5.8 mph - N/A   Unknown
12:55 AM 33.8 °F 29.6 °F 30.2 °F 87% 29.42 in 6.2 mi East 4.6 mph - N/A   Unknown
1:00 AM 33 °F - 30 °F 84% 29.43 in 18 mi East 4.5 mph - -   Partly Cloudy
1:25 AM 33.8 °F 29.6 °F 30.2 °F 87% 29.42 in 6.2 mi East 4.6 mph - N/A   Unknown
1:55 AM 32.0 °F 26.4 °F 30.2 °F 93% 29.44 in 6.2 mi East 5.8 mph - N/A   Scattered Clouds
2:00 AM 33 °F - 30 °F 84% 29.45 in 19 mi East 4.5 mph - -   Scattered Clouds
2:25 AM 32.0 °F 26.4 °F 30.2 °F 93% 29.44 in 6.2 mi East 5.8 mph - N/A   Unknown
2:55 AM 33.8 °F 29.6 °F 30.2 °F 87% 29.44 in 6.2 mi East 4.6 mph - N/A   Scattered Clouds
3:00 AM 31 °F - 28 °F 83% 29.46 in 16 mi East 4.5 mph - -   Scattered Clouds
3:25 AM 33.8 °F 30.8 °F 32.0 °F 93% 29.44 in 6.2 mi ESE 3.5 mph - N/A   Partly Cloudy
3:55 AM 32.0 °F 28.7 °F 28.4 °F 87% 29.47 in 6.2 mi East 3.5 mph - N/A   Unknown
4:00 AM 33 °F - 31 °F 90% 29.48 in 16 mi East 4.5 mph - -  
4:25 AM 33.8 °F 30.8 °F 32.0 °F 93% 29.47 in 6.2 mi East 3.5 mph - N/A   Unknown
4:55 AM 33.8 °F 30.8 °F 32.0 °F 93% 29.47 in 6.2 mi East 3.5 mph - N/A   Unknown
5:00 AM 33 °F - 31 °F 91% 29.51 in 12 mi East 4.5 mph - -  
5:25 AM 33.8 °F 30.8 °F 32.0 °F 93% 29.50 in 6.2 mi East 3.5 mph - N/A   Unknown
5:55 AM 33.8 °F - 32.0 °F 93% 29.50 in 6.2 mi ESE 2.3 mph - N/A   Unknown
6:00 AM 32 °F - 32 °F 98% 29.53 in 7 mi SE 2.2 mph - -  
6:25 AM 32.0 °F - 30.2 °F 93% 29.53 in 6.2 mi ESE 1.2 mph - N/A   Unknown
6:55 AM 33.8 °F - 32.0 °F 93% 29.53 in 6.2 mi SSE 1.2 mph - N/A   Unknown
7:00 AM 32 °F - 31 °F 97% 29.55 in 9 mi SE 2.2 mph - -   Partly Cloudy
7:25 AM 30.2 °F - 30.2 °F 100% 29.53 in 6.2 mi Calm Calm - N/A   Partly Cloudy
7:46 AM 30.2 °F - 30.2 °F 100% 29.53 in 3.7 mi Calm Calm - N/A   Mist
7:55 AM 30.2 °F - 30.2 °F 100% 29.56 in 6.2 mi Calm Calm - N/A   Unknown
8:00 AM 31 °F - 30 °F 95% 29.57 in 6 mi Calm Calm - -   Mist
8:09 AM 30.2 °F - 30.2 °F 100% 29.56 in 5.6 mi SE 1.2 mph - N/A   Mist
8:25 AM 30.2 °F - 30.2 °F 100% 29.56 in 5.6 mi SE 2.3 mph - N/A   Partly Cloudy
8:55 AM 32.0 °F - 30.2 °F 93% 29.56 in 6.2 mi SE 1.2 mph - N/A   Unknown
9:00 AM 33 °F - 32 °F 92% 29.60 in 9 mi East 4.5 mph - -  
9:25 AM 39.2 °F - 35.6 °F 87% 29.59 in 6.2 mi ESE 2.3 mph - N/A   Unknown
9:36 AM 39.2 °F - 35.6 °F 87% 29.59 in 6.2 mi SE 2.3 mph - N/A   Unknown
9:55 AM 41.0 °F 39.0 °F 35.6 °F 81% 29.59 in 6.2 mi SSE 3.5 mph - N/A   Unknown
10:00 AM 42 °F - 36 °F 71% 29.61 in 14 mi South 4.5 mph - -  
10:12 AM 44.6 °F 43.1 °F 37.4 °F 76% 29.59 in 6.2 mi South 3.5 mph - N/A   Unknown
10:25 AM 44.6 °F 42.2 °F 37.4 °F 76% 29.59 in 6.2 mi South 4.6 mph - N/A   Unknown
10:55 AM 44.6 °F 42.2 °F 39.2 °F 81% 29.59 in 6.2 mi SSW 4.6 mph - N/A   Unknown
11:00 AM 46 °F - 39 °F 68% 29.62 in 14 mi SSW 4.5 mph - -  
11:25 AM 46.4 °F 44.3 °F 39.2 °F 76% 29.59 in 6.2 mi SSW 4.6 mph - N/A   Unknown
11:39 AM 46.4 °F 44.3 °F 39.2 °F 76% 29.59 in 6.2 mi SSW 4.6 mph - N/A   Partly Cloudy
11:55 AM 48.2 °F - 39.2 °F 71% 29.62 in 6.2 mi South 5.8 mph - N/A   Mostly Cloudy
12:00 PM 48 °F - 40 °F 66% 29.63 in 18 mi South 6.7 mph - -   Scattered Clouds
12:25 PM 50.0 °F - 41.0 °F 71% 29.62 in 6.2 mi SSW 5.8 mph - N/A   Partly Cloudy
12:55 PM 50.0 °F - 39.2 °F 66% 29.62 in 6.2 mi South 8.1 mph - N/A   Unknown
1:00 PM 51 °F - 41 °F 58% 29.64 in 19 mi SSW 8.9 mph - -   Partly Cloudy
1:25 PM 50.0 °F - 41.0 °F 71% 29.62 in 6.2 mi South 8.1 mph - N/A   Scattered Clouds
1:55 PM 50.0 °F - 39.2 °F 66% 29.62 in 6.2 mi SSW 8.1 mph - N/A   Scattered Clouds
1:56 PM 51.8 °F - 41.0 °F 67% 29.62 in 6.2 mi SSW 8.1 mph - N/A   Partly Cloudy
2:00 PM 52 °F - 40 °F 53% 29.63 in 16 mi SSW 6.7 mph - -   Scattered Clouds
2:25 PM 51.8 °F - 39.2 °F 62% 29.62 in 6.2 mi SSW 8.1 mph - N/A   Partly Cloudy
2:55 PM 53.6 °F - 37.4 °F 54% 29.62 in 6.2 mi SSW 6.9 mph - N/A   Mostly Cloudy
3:00 PM 52 °F - 38 °F 47% 29.64 in 22 mi South 11.2 mph - -   Mostly Cloudy
3:25 PM 51.8 °F - 37.4 °F 58% 29.62 in 6.2 mi SSW 10.4 mph - N/A   Overcast
3:55 PM 50.0 °F - 35.6 °F 58% 29.62 in 6.2 mi SSW 11.5 mph - N/A   Mostly Cloudy
4:00 PM 50 °F - 36 °F 49% 29.66 in 28 mi SSW 11.2 mph - -   Scattered Clouds
4:25 PM 50.0 °F - 37.4 °F 62% 29.65 in 6.2 mi SW 10.4 mph - N/A   Overcast
4:26 PM 50.0 °F - 37.4 °F 62% 29.65 in 6.2 mi SW 10.4 mph - N/A   Overcast
4:55 PM 48.2 °F - 37.4 °F 66% 29.65 in 6.2 mi WSW 8.1 mph - N/A   Overcast
5:00 PM 49 °F - 38 °F 55% 29.68 in 28 mi SW 8.9 mph - -   Overcast
5:25 PM 48.2 °F - 37.4 °F 66% 29.68 in 6.2 mi SW 6.9 mph - N/A   Overcast
5:55 PM 48.2 °F - 37.4 °F 66% 29.68 in 6.2 mi WSW 9.2 mph - N/A   Overcast
6:00 PM 48 °F - 38 °F 60% 29.70 in 25 mi WSW 8.9 mph - -   Overcast
6:25 PM 46.4 °F 41.1 °F 37.4 °F 71% 29.71 in 6.2 mi SW 11.5 mph - N/A   Overcast
6:55 PM 41.0 °F 39.0 °F 33.8 °F 76% 29.71 in 6.2 mi WSW 3.5 mph - N/A   Unknown
7:00 PM 41 °F - 35 °F 71% 29.75 in 13 mi WSW 4.5 mph - -   Partly Cloudy
7:25 PM 39.2 °F 35.0 °F 33.8 °F 81% 29.74 in 6.2 mi WSW 5.8 mph - N/A   Unknown
7:55 PM 37.4 °F 34.9 °F 32.0 °F 81% 29.74 in 6.2 mi WSW 3.5 mph - N/A   Unknown
8:00 PM 39 °F - 35 °F 78% 29.77 in 11 mi WSW 2.2 mph - -   Scattered Clouds
8:25 PM 39.2 °F - 35.6 °F 87% 29.77 in 6.2 mi WSW 2.3 mph - N/A   Overcast
8:55 PM 41.0 °F 39.0 °F 35.6 °F 81% 29.77 in 6.2 mi WSW 3.5 mph - N/A   Mostly Cloudy
9:00 PM 40 °F - 36 °F 78% 29.79 in 9 mi WSW 2.2 mph - -   Partly Cloudy
9:04 PM 41.0 °F 39.0 °F 35.6 °F 81% 29.77 in 6.2 mi SW 3.5 mph - N/A   Overcast
9:10 PM 41.0 °F 39.0 °F 35.6 °F 81% 29.77 in 6.2 mi SW 3.5 mph - N/A   Overcast
9:25 PM 41.0 °F - 35.6 °F 81% 29.77 in 6.2 mi WSW 2.3 mph - N/A   Overcast
9:55 PM 42.8 °F - 35.6 °F 76% 29.77 in 6.2 mi SW 2.3 mph - N/A   Overcast
10:00 PM 42 °F - 36 °F 72% 29.80 in 7 mi SW 2.2 mph - -   Overcast
10:03 PM 42.8 °F - 35.6 °F 76% 29.77 in 6.2 mi SW 2.3 mph - N/A   Overcast
10:04 PM 42.8 °F - 35.6 °F 76% 29.77 in 6.2 mi SW 2.3 mph - N/A   Overcast
10:25 PM 41.0 °F - 37.4 °F 87% 29.80 in 6.2 mi WSW 2.3 mph - N/A   Overcast
10:27 PM 41.0 °F - 37.4 °F 87% 29.80 in 6.2 mi WSW 2.3 mph - N/A   Overcast
10:55 PM 41.0 °F - 37.4 °F 87% 29.80 in 6.2 mi SW 1.2 mph - N/A   Overcast
11:00 PM 42 °F - 36 °F 72% 29.82 in 8 mi SW 2.2 mph - -   Overcast
11:16 PM 41.0 °F 39.0 °F 37.4 °F 87% 29.80 in 6.2 mi SW 3.5 mph - N/A   Mostly Cloudy
11:25 PM 39.2 °F 37.0 °F 35.6 °F 87% 29.80 in 6.2 mi SW 3.5 mph - N/A   Mostly Cloudy
11:47 PM 39.2 °F - 35.6 °F 87% 29.83 in 6.2 mi SW 2.3 mph - N/A   Scattered Clouds
11:48 PM 37.4 °F - 33.8 °F 87% 29.83 in 6.2 mi SW 2.3 mph - N/A   Mostly Cloudy
11:55 PM 39.2 °F 37.0 °F 35.6 °F 87% 29.83 in 6.2 mi SW 3.5 mph - N/A   Scattered Clouds
11:56 PM 39.2 °F - 35.6 °F 87% 29.83 in 6.2 mi WSW 2.3 mph - N/A   Partly Cloudy